CAPE
785 1347 1548 1786 1903 1847 1551 1511 1520 1576 1640 1663 1827 1856 1847 1917 1849 1774 1818 1643 1566 1481 1088 913 910 819 854 923 923 940 1067 1316 1563 1727 1828 1599 1546 1563 1710 1674 1496 924 1564
949 1375 1415 1683 1846 1777 1570 1519 1512 1639 1649 1790 1880 1859 1876 1781 1754 1759 1703 1633 1476 1389 908 771 825 562 511 570 722 825 903 936 1165 1493 1581 1711 1638 1469 1397 1607 1539 1317 1659
1117 1380 1698 1542 1760 1759 1673 1629 1664 1770 1755 1880 1892 1827 1759 1711 1671 1700 1633 1498 1410 1407 999 791 842 693 514 538 681 574 579 465 520 1345 1637 821 1223 1577 1518 1827 1773 1693 1835
1118 1411 1665 1392 1653 1731 1647 1634 1719 1817 1781 1835 1811 1782 1703 1656 1608 1651 1585 1395 1424 1518 1310 1359 1269 1014 783 836 798 562 305 201 209 500 70 482 841 1326 1558 1653 1835 1789 1628
980 1167 1684 1339 1470 1656 1626 1613 1681 1687 1625 1658 1646 1716 1631 1625 1607 1551 1513 1409 1613 1836 1541 1348 806 249 243 472 851 513 152 123 231 175 64 179 566 1283 1283 1529 1265 1216 1352
893 901 1011 1166 1308 1514 1651 1645 1638 1511 1443 1417 1459 1559 1558 1668 1598 1426 1445 1556 1733 1843 1560 1039 399 47 160 331 519 316 30 68 258 0 16 188 510 932 990 983 1154 1192 1206
865 1142 1539 1012 1205 1516 1690 1658 1472 1373 1267 1283 1383 1369 1452 1601 1502 1298 1324 1585 1651 1670 1494 748 205 64 181 575 486 233 11 167 81 29 12 38 541 799 779 865 859 939 1004
882 1858 1471 1098 1207 1408 1485 1318 1181 1138 1106 1127 1166 1211 1342 1380 1284 1219 1230 1359 1445 1360 1009 559 102 30 108 452 442 91 24 275 205 64 1 10 574 529 595 713 748 924 880
893 1765 1421 1519 1464 1063 1010 896 829 865 894 938 982 1031 1044 1037 1029 1091 1067 1176 1257 1030 631 250 2 0 27 117 143 0 0 252 469 100 13 11 518 223 123 143 284 438 536
1032 1495 1249 1429 1675 1834 1459 550 553 590 629 711 763 769 744 808 883 870 844 957 935 732 394 52 0 0 0 0 0 0 0 174 594 118 34 196 621 289 169 60 38 23 5
1236 1269 981 1135 1592 1850 1688 1023 426 416 460 518 543 471 471 205 728 818 399 635 609 414 160 0 0 0 0 0 0 0 17 880 583 204 30 586 685 252 145 58 26 1 0
1334 1176 731 826 1256 1670 1243 1167 852 574 499 388 333 455 37 250 163 91 414 398 349 199 3 0 0 0 0 0 0 0 443 644 644 555 132 679 742 248 147 80 43 34 24
1402 1152 579 1008 1314 1011 668 632 470 506 331 339 314 184 171 269 288 108 496 147 99 34 0 0 0 0 0 0 0 0 371 866 566 530 211 651 790 360 198 99 45 43 65
1466 1173 689 614 1416 1370 698 325 225 347 440 373 222 711 541 507 505 324 110 11 20 0 0 0 0 0 0 0 0 79 353 834 675 551 345 607 797 669 377 183 90 86 111
1448 1141 880 934 1697 1668 1542 421 528 440 324 373 514 817 269 256 728 178 89 0 1 0 0 0 0 0 0 5 169 276 251 420 781 577 242 516 688 944 731 424 208 188 168
1349 1315 1038 1056 1613 1771 1172 1211 1429 1017 567 518 517 533 1374 601 955 86 137 0 0 0 0 0 0 0 0 72 449 511 526 345 701 882 440 584 598 776 1076 1057 464 372 292
1153 1187 1709 1806 1695 1848 1748 1658 1307 831 862 782 477 1382 898 905 1165 561 84 49 1 0 228 1 0 0 0 161 570 1038 825 431 726 797 460 469 450 645 942 1243 1083 840 472
1071 1001 1796 1316 1874 2050 1704 1695 1218 1252 1234 927 712 908 1130 890 997 944 169 131 26 28 0 0 0 30 278 576 1018 1079 831 598 1198 1203 591 421 510 673 475 404 843 735 502
492 1393 1699 2081 2025 2091 2043 1651 1768 1944 1464 1307 1098 703 1368 914 634 710 136 169 361 15 19 2 13 97 449 886 1072 1270 1479 1686 587 713 853 815 757 883 532 221 496 424 108
463 1755 2010 2174 2446 2381 2172 2165 1677 1582 1681 1447 1363 1047 1511 994 708 978 147 380 233 29 50 33 157 90 484 916 780 1074 1921 1868 1463 667 835 814 746 723 1074 559 411 240 2
133 845 2429 2163 2512 2411 2084 2006 1920 1779 1979 1809 1671 1711 1742 1414 1046 1087 228 350 463 254 124 462 139 383 538 1221 884 1575 1734 1453 1312 1401 1105 869 550 713 879 746 555 67 0
6 652 1554 1992 2203 2230 2234 2164 2218 2114 2016 1613 1766 1897 1887 1648 1543 1130 932 501 639 269 508 505 525 344 588 1537 1179 1332 1041 1035 918 771 457 483 522 569 104 22 0 0 1
1 954 1293 1783 1986 1917 2318 2170 2146 1915 1931 1808 1968 2026 1913 1818 1782 1370 1138 971 903 614 527 941 763 690 843 1387 1937 1235 1150 845 679 40 16 37 81 0 0 0 0 0 0
128 1046 1523 1946 2048 1764 2063 2184 2140 1847 1718 1959 2003 1650 1595 1932 2010 1703 1326 1085 1329 789 645 957 1028 834 826 1106 1737 1789 1933 1345 842 45 0 0 0 1 0 0 0 0 0
30 1711 2387 2340 2264 2022 1993 2455 2431 2304 2150 2064 1774 1543 1542 1923 2292 2003 1814 1449 1498 1137 950 1154 1335 1727 1019 903 1455 1706 1938 1510 1540 1000 70 0 0 0 0 0 0 0 0
145 2258 2721 2458 2220 2025 2325 2614 2901 2733 2332 1925 1891 1727 1592 1535 2302 2305 2139 1873 1512 1497 1362 1588 1704 2137 1702 888 1397 1663 1607 1704 1450 1194 646 3 0 0 0 0 0 0 0
CIN
-102 -278 -333 -218 -135 -85 -112 -126 -109 -77 -62 -46 -20 -21 -9 -0 -0 -0 -0 -2 -5 -8 -23 -31 -30 -43 -37 -16 -17 -19 -12 -8 -5 -0 -0 -0 -0 -0 -1 -11 -5 -0 -0
-128 -292 -369 -246 -168 -116 -116 -120 -109 -68 -60 -29 -19 -21 -5 -0 -0 -0 -1 -5 -10 -13 -36 -50 -46 -88 -84 -77 -50 -26 -29 -38 -20 -21 -14 -0 -0 -1 -10 -12 -3 -0 -0
-186 -303 -297 -285 -206 -126 -90 -102 -83 -56 -48 -21 -15 -16 -10 -3 -5 -3 -6 -12 -18 -16 -39 -65 -56 -68 -99 -100 -65 -95 -110 -143 -125 -55 -16 -8 -0 -0 -0 -0 -0 -0 -0
-232 -296 -259 -325 -247 -152 -103 -96 -71 -51 -48 -25 -14 -15 -14 -10 -13 -9 -10 -24 -22 -13 -20 -15 -19 -37 -70 -60 -69 -134 -206 -260 -253 -152 -175 -35 -8 -0 -0 -0 -0 -0 -0
-229 -288 -282 -373 -286 -191 -128 -87 -75 -64 -59 -34 -24 -20 -25 -12 -15 -22 -18 -25 -13 -3 -16 -25 -83 -215 -224 -164 -94 -166 -292 -317 -258 -158 -199 -128 -54 -0 -0 -1 -3 -6 -1
-212 -243 -525 -440 -332 -245 -133 -82 -75 -83 -81 -55 -37 -38 -38 -12 -11 -32 -21 -12 -5 -3 -12 -59 -179 -334 -288 -223 -165 -240 -405 -390 -267 -0 -297 -164 -94 -33 -20 -23 -0 -0 -0
-210 -229 -344 -460 -365 -249 -147 -98 -102 -110 -114 -79 -49 -55 -52 -21 -21 -42 -26 -6 -4 -8 -19 -115 -260 -339 -295 -182 -196 -276 -284 -335 -133 -213 -290 -288 -105 -61 -60 -43 -30 -11 -0
-234 -182 -283 -404 -348 -277 -200 -184 -167 -163 -154 -120 -92 -80 -61 -47 -66 -54 -35 -14 -11 -22 -91 -176 -301 -370 -330 -218 -223 -355 -321 -282 -68 -177 -143 -258 -103 -104 -78 -47 -36 -9 -11
-229 -181 -270 -230 -263 -337 -333 -288 -262 -223 -203 -170 -149 -121 -108 -108 -117 -87 -60 -32 -28 -71 -162 -260 -128 -13 -378 -309 -305 -0 -0 -275 -34 -119 -249 -261 -105 -169 -203 -179 -105 -71 -49
-196 -178 -256 -208 -170 -137 -189 -411 -332 -300 -251 -223 -200 -192 -176 -152 -130 -130 -119 -72 -72 -127 -204 -322 -0 -0 -0 -0 -0 -0 -10 -303 -9 -61 -197 -158 -72 -140 -172 -219 -226 -224 -228
-150 -167 -237 -229 -150 -113 -127 -251 -377 -333 -292 -245 -239 -266 -250 -244 -133 -117 -195 -166 -151 -194 -263 -0 -0 -0 -0 -0 -0 -0 -367 -8 -5 -41 -179 -81 -36 -117 -163 -205 -214 -41 -0
-120 -157 -235 -245 -181 -114 -149 -192 -214 -213 -216 -216 -231 -228 -325 -218 -240 -261 -197 -229 -218 -260 -93 -0 -0 -0 -0 -0 -0 -0 -88 -3 -1 -12 -148 -57 -23 -102 -133 -160 -173 -182 -172
-73 -103 -208 -173 -156 -201 -230 -261 -262 -238 -241 -215 -239 -273 -227 -207 -192 -234 -162 -255 -265 -260 -0 -0 -0 -0 -0 -0 -0 -0 -32 -7 -1 -23 -162 -61 -13 -62 -100 -127 -146 -145 -128
-51 -88 -151 -188 -98 -120 -200 -300 -310 -258 -224 -214 -258 -144 -136 -151 -151 -152 -243 -341 -289 -0 -0 -0 -0 -0 -0 -0 -0 -74 -30 -0 -0 -31 -117 -54 -8 -11 -39 -76 -103 -103 -89
-33 -82 -105 -108 -47 -52 -71 -235 -205 -213 -225 -197 -169 -128 -200 -195 -125 -199 -218 -0 -22 -0 -0 -0 -0 -0 -0 -36 -83 -65 -54 -7 -0 -22 -88 -63 -17 -1 -2 -21 -53 -48 -49
-21 -58 -87 -90 -47 -24 -84 -89 -61 -93 -153 -143 -148 -165 -46 -135 -94 -230 -205 -0 -0 -0 -0 -0 -0 -0 -0 -102 -51 -30 -21 -35 -0 -1 -50 -38 -31 -14 -1 -0 -7 -8 -19
-35 -39 -39 -33 -37 -12 -12 -29 -44 -87 -78 -89 -133 -44 -96 -98 -78 -123 -206 -223 -46 -0 -128 -6 -0 -0 -0 -72 -17 -1 -1 -14 -0 -2 -36 -26 -44 -32 -6 -1 -1 -0 -3
-20 -42 -27 -61 -25 -7 -9 -16 -41 -30 -26 -61 -80 -83 -65 -90 -90 -84 -182 -192 -247 -213 -0 -0 -0 -173 -59 -16 -0 -0 -4 -5 -4 -6 -36 -40 -19 -3 -37 -25 -5 -3 -0
-44 -17 -20 -10 -13 -22 -0 -7 -2 -1 -12 -16 -32 -84 -45 -81 -115 -110 -187 -178 -132 -261 -267 -47 -220 -146 -50 -1 -1 -21 -21 -11 -1 -6 -15 -17 -17 -1 -4 -22 -9 -9 -27
-30 -2 -4 -8 -2 -7 -1 -0 -1 -1 -0 -2 -9 -32 -32 -69 -98 -65 -160 -129 -181 -247 -237 -247 -153 -155 -37 -0 -0 -16 -42 -12 -4 -0 -0 -0 -8 -3 -2 -4 -2 -10 -21
-9 -9 -0 -9 -2 -2 -12 -6 -1 -21 -8 -0 -1 -0 -10 -37 -56 -58 -124 -138 -140 -150 -194 -111 -160 -73 -19 -0 -0 -40 -4 -0 -0 -1 -0 -1 -31 -10 -0 -1 -3 -76 -0
-37 -4 -7 -12 -20 -19 -22 -34 -16 -15 -3 -12 -0 -0 -1 -15 -14 -58 -56 -99 -119 -150 -113 -122 -104 -100 -29 -0 -0 -0 -0 -0 -1 -2 -27 -29 -26 -20 -74 -102 -1 -0 -0
-23 -0 -2 -7 -30 -51 -31 -29 -2 -0 -0 -0 -0 -0 -7 -15 -9 -30 -62 -39 -72 -109 -127 -77 -101 -84 -47 -0 -0 -0 -0 -0 -5 -133 -68 -51 -35 -0 -0 -0 -0 -0 -0
-46 -0 -0 -0 -8 -58 -42 -14 -10 -13 -16 -19 -26 -43 -35 -13 -4 -11 -34 -49 -18 -96 -108 -93 -71 -80 -50 -9 -0 -0 -0 -15 -6 -121 -0 -0 -0 -0 -0 -0 -0 -0 -0
-8 -0 -0 -0 -2 -23 -47 -4 -7 -9 -12 -13 -40 -78 -44 -8 -0 -0 -3 -25 -9 -66 -62 -69 -42 -17 -54 -26 -0 -0 -0 -0 -1 -2 -72 -0 -0 -0 -0 -0 -0 -0 -0
-6 -1 -0 -0 -1 -14 -7 -12 -0 -6 -26 -17 -55 -78 -102 -67 -2 -0 -2 -10 -28 -31 -50 -14 -22 -2 -17 -70 -0 -0 -0 -0 -0 -0 -0 -47 -0 -0 -0 -0 -0 -0 -0
Wind_Speed
18 22 17 16 15 12 14 16 15 15 16 16 15 17 16 16 17 17 17 18 17 17 18 18 17 18 18 17 17 15 13 13 16 19 18 18 18 18 17 11 15 17 15
22 23 16 16 16 13 15 16 17 16 17 16 16 16 16 15 17 16 17 17 17 18 19 18 18 18 17 17 16 13 10 9 9 16 20 19 19 19 19 19 16 15 16
22 22 20 15 16 14 15 18 18 18 18 16 16 16 16 15 16 16 16 16 17 18 18 18 18 17 16 15 13 11 7 3 5 10 7 14 16 18 17 15 15 16 16
22 21 20 16 18 17 15 18 19 19 19 17 16 16 15 15 16 15 14 15 16 17 18 17 15 14 13 12 11 8 3 3 3 6 12 15 15 16 16 16 14 16 17
21 22 20 18 18 18 16 17 19 19 18 17 16 16 16 15 15 15 13 14 15 15 16 16 14 13 11 9 9 5 3 5 7 4 15 13 12 14 15 13 16 18 17
21 22 22 20 19 20 17 17 18 18 17 15 15 16 16 15 15 14 12 12 13 14 14 14 12 10 9 9 8 5 2 6 10 14 14 14 14 14 17 17 16 15 15
21 20 20 18 19 19 20 18 18 18 17 15 14 14 15 15 14 13 11 10 11 13 13 12 11 8 8 9 9 3 4 8 8 13 13 13 12 14 15 16 15 15 15
20 20 18 18 19 19 19 19 17 18 17 15 14 13 14 13 14 12 9 10 10 11 11 10 8 7 8 9 8 4 7 10 12 13 13 12 11 13 14 14 14 13 14
18 18 18 17 18 16 18 19 17 17 17 15 14 13 12 12 12 12 9 9 11 10 9 9 8 7 8 8 8 4 4 8 7 10 12 9 10 13 13 13 13 14 14
17 17 18 18 17 17 16 19 17 16 15 15 14 13 12 12 11 11 12 10 9 10 8 7 7 6 6 7 7 3 7 9 7 11 11 9 11 13 13 13 13 13 13
15 17 18 19 18 17 17 16 18 17 16 14 14 14 13 11 13 13 10 13 10 9 8 7 6 6 6 6 5 8 8 3 4 9 9 9 11 13 13 13 13 12 13
18 19 19 19 19 18 15 17 16 15 14 14 14 15 12 12 12 13 12 12 10 9 8 7 6 6 9 8 6 7 7 5 4 10 9 10 11 12 12 12 12 12 13
18 16 19 17 17 18 14 13 9 10 10 11 15 14 12 11 10 9 8 9 9 9 8 8 7 8 11 8 8 8 6 7 5 10 11 10 11 11 11 11 11 12 12
20 20 20 20 16 16 13 13 13 11 11 10 13 15 9 8 10 9 9 11 10 9 10 10 8 10 6 6 7 4 6 5 5 10 9 9 10 11 12 11 11 11 11
20 22 21 20 17 15 14 13 13 12 12 12 12 14 11 11 9 9 10 10 10 11 10 10 9 7 8 7 6 7 5 1 5 8 8 9 9 9 11 11 11 11 11
20 22 22 22 19 16 15 15 11 11 13 12 12 13 12 11 9 10 9 10 10 10 9 9 7 8 8 8 7 7 7 6 6 10 10 9 7 8 9 10 11 11 12
18 22 21 20 20 18 17 15 13 12 13 11 12 14 14 13 12 11 10 10 10 9 9 8 8 8 8 8 8 7 6 6 7 8 9 10 9 6 6 8 10 12 13
21 22 22 20 21 20 17 15 13 13 12 12 11 12 15 14 14 11 10 10 10 8 9 9 8 8 8 7 7 8 8 8 5 3 10 8 8 9 6 6 10 12 14
19 23 22 23 22 22 18 14 14 14 12 12 12 12 16 15 14 12 11 10 10 10 9 9 9 9 8 9 8 3 3 3 8 7 5 10 9 7 7 8 8 13 14
18 21 21 20 21 22 15 13 13 12 13 12 12 13 16 14 15 12 11 11 11 10 10 10 10 10 9 9 9 6 5 4 1 4 5 5 4 4 7 11 9 9 13
20 21 23 22 23 17 15 15 14 14 14 13 13 16 16 15 17 14 11 12 12 11 11 10 9 9 9 9 8 7 6 5 4 1 2 5 5 4 5 8 6 8 7
20 20 24 25 22 20 16 15 13 13 13 14 12 14 15 16 16 15 13 12 14 11 12 12 11 9 10 9 9 8 5 4 5 4 4 4 5 6 8 7 7 9 9
21 18 22 25 22 21 22 15 14 13 11 12 13 12 14 17 17 17 17 11 13 12 11 12 13 13 10 9 12 8 8 5 11 5 2 4 3 6 6 6 6 7 8
18 17 21 23 22 22 24 20 23 17 16 14 13 12 14 18 19 18 17 16 13 12 12 13 12 12 11 11 10 10 10 5 8 6 4 1 1 4 5 4 5 6 8
20 17 18 21 21 22 23 22 19 20 15 13 11 17 17 16 19 19 18 17 14 12 13 15 15 15 11 10 10 12 11 8 8 6 8 6 2 3 4 4 4 4 5
16 18 18 21 22 23 22 27 22 23 18 15 16 15 14 14 15 20 19 17 16 14 15 14 16 17 13 14 10 11 11 10 10 9 7 11 9 6 5 4 4 4 5
Wind_Direction
135 139 137 143 140 146 146 139 134 133 129 128 128 122 118 114 109 108 110 112 111 109 107 103 99 95 92 91 84 75 66 69 85 81 75 73 68 63 63 69 97 82 72
137 146 136 142 138 143 150 141 137 137 133 135 132 126 122 119 116 115 116 117 117 114 111 107 102 98 96 94 91 90 84 79 89 110 106 86 66 66 63 59 64 79 77
136 148 146 141 140 144 152 142 141 139 137 138 134 130 128 125 121 121 122 122 120 116 113 108 103 99 98 96 96 96 96 99 148 176 121 83 80 76 76 77 80 81 78
140 151 148 143 144 143 151 144 143 143 140 140 137 136 132 128 125 126 125 125 123 121 118 113 107 103 102 101 94 96 126 181 268 303 91 90 86 76 83 77 79 92 85
150 157 139 142 152 142 146 145 142 142 140 140 142 141 134 131 130 128 128 127 126 124 119 114 108 103 97 102 105 124 207 266 305 95 79 81 83 71 70 82 84 67 62
156 162 138 141 153 147 143 143 141 141 138 141 144 140 136 134 132 130 129 129 130 124 120 115 109 103 105 111 130 172 241 317 291 96 92 75 76 77 73 74 74 72 71
158 147 148 143 149 147 142 141 141 139 137 139 141 139 138 136 132 129 129 130 130 126 123 121 116 112 104 117 143 176 259 269 91 91 89 86 82 80 79 78 79 76 75
161 136 149 144 142 144 142 138 140 138 137 138 138 137 135 135 128 128 131 129 124 122 120 117 117 111 103 121 136 170 283 326 91 88 90 87 89 87 85 84 81 81 81
162 146 155 162 144 139 139 137 138 139 138 138 136 134 132 128 127 127 126 123 120 119 120 121 124 121 112 126 138 162 292 297 104 116 111 102 99 97 93 89 88 87 86
166 157 164 165 162 158 155 139 139 138 138 137 137 133 130 127 127 130 130 124 126 126 125 126 129 121 108 120 146 165 248 270 143 108 90 103 113 105 100 96 93 91 92
172 169 171 167 168 165 163 152 140 141 138 137 139 135 142 162 166 157 160 138 139 136 140 144 141 137 131 109 140 209 255 223 149 102 101 123 114 108 105 101 97 95 91
182 178 175 172 173 168 165 159 162 160 166 171 171 165 173 157 180 184 139 137 144 145 149 157 162 177 208 163 164 224 236 106 107 103 108 129 120 115 111 106 103 98 94
187 185 180 176 173 175 167 167 169 166 171 179 177 177 186 162 174 174 148 158 165 174 179 182 179 204 207 188 155 211 116 199 145 94 124 136 132 128 123 118 114 110 106
188 191 186 180 177 184 165 172 173 172 172 179 181 185 186 174 165 183 166 174 176 180 188 198 187 210 195 235 179 126 189 213 155 110 134 143 144 143 136 130 126 117 111
196 190 191 182 178 189 175 177 179 178 178 182 179 188 183 191 172 188 170 180 185 177 184 200 190 188 190 195 182 177 186 242 125 118 138 152 155 154 149 142 135 126 120
200 191 193 187 180 189 188 179 180 184 176 188 181 183 194 199 172 189 175 191 191 180 183 195 185 186 187 180 188 196 177 172 198 130 130 151 165 167 165 157 147 141 131
206 191 192 190 181 191 199 179 184 185 180 190 184 178 199 205 170 190 186 197 194 183 184 191 182 198 191 183 184 195 176 177 180 144 151 148 162 178 182 182 164 153 140
199 202 189 194 185 189 200 185 190 184 189 188 189 180 195 202 174 197 191 197 193 185 190 195 189 192 197 195 188 176 178 179 131 131 126 156 171 170 175 183 166 154 140
205 198 193 195 192 188 198 194 194 190 195 192 192 187 186 198 188 198 195 190 188 189 189 198 192 197 196 200 185 169 123 94 165 156 126 137 217 161 168 132 141 141 145
211 195 193 191 197 185 192 203 192 195 192 200 193 189 182 199 199 201 199 187 190 192 188 197 194 199 199 205 196 142 104 95 26 173 183 158 161 197 141 149 151 144 137
218 199 190 191 193 185 192 195 191 199 188 201 196 192 183 199 198 196 209 187 190 197 191 189 193 201 211 204 213 111 113 137 119 78 133 167 162 200 152 155 137 140 136
228 203 191 197 191 192 194 195 200 193 193 197 202 188 190 195 199 194 216 189 187 198 189 181 195 194 216 210 214 157 167 153 151 154 160 149 143 111 102 103 118 132 138
234 202 194 202 189 194 197 197 203 193 201 195 196 190 191 196 207 201 204 210 186 203 188 187 193 205 196 208 225 181 191 208 156 131 123 125 108 108 96 82 87 125 119
235 201 197 205 192 193 201 202 200 200 193 198 191 193 198 206 202 201 203 213 196 198 195 191 189 204 208 201 196 228 210 155 176 159 163 174 258 152 136 136 125 123 133
212 199 196 204 194 197 193 210 203 203 202 190 188 191 211 206 210 205 203 203 209 195 209 188 194 200 205 215 202 206 235 226 217 206 170 172 224 224 166 174 160 150 130
232 190 194 200 202 202 195 201 210 203 201 191 194 199 193 212 202 205 201 205 208 203 200 201 196 196 209 210 214 204 219 220 215 236 232 162 181 183 183 177 179 166 159